Location: Buckland
(65.9785°N, 161.1281°W)
Time: 05:06:11
(UTC+00:00)

Transit 4A - Pass Details

Date: 28 November 2020
Orbit: 864 x 980 km, 66.8° (Epoch: 26 January)

Event Time Altitude Azimuth Distance (km) Brightness Sun altitude
Rises 23:23:05 0° 273° (W) 3,685 11.1 2.0°
Reaches altitude 10° 23:25:39 10° 275° (W) 2,741 10.5 1.9°
Maximum altitude 23:32:07 83° 4° (N) 995 8.1 1.8°
Drops below altitude 10° 23:38:32 10° 93° (E) 2,719 10.2 1.6°
Sets 23:41:05 0° 95° (E) 3,654 10.9 1.5°
